OVO0011 ZWSH-ZWWW

Flight info

Callsign OVO0011
Flight time N/A
Altitude 37100
Route MAGIV B215 EPDAG
Aircraft A319/M-SDE3FGHIRWY/LB1

Departure

Time N/A
Airport Kashgar Laining International Airport (ZWSH)

Arrival

Time 2026-05-07 14:34
Airport Ürümqi Tianshan International Airport (ZWWW)
Time Latitude Longitude Altitude Speed Heading
2026-05-07 14:26 43.75907 87.22652 7145 ft 207 kts 306°
2026-05-07 14:27 43.76980 87.21365 6973 ft 205 kts 336°
2026-05-07 14:27 43.78326 87.20755 6824 ft 204 kts 345°
2026-05-07 14:27 43.79681 87.20200 6643 ft 202 kts 344°
2026-05-07 14:27 43.81027 87.19644 6493 ft 202 kts 343°
2026-05-07 14:28 43.82368 87.19088 6330 ft 201 kts 344°
2026-05-07 14:28 43.83749 87.18754 6013 ft 204 kts
2026-05-07 14:28 43.85119 87.19112 5821 ft 199 kts 22°
2026-05-07 14:28 43.86292 87.20083 5663 ft 196 kts 41°
2026-05-07 14:29 43.87153 87.21541 5470 ft 196 kts 61°
2026-05-07 14:29 43.87627 87.23305 5243 ft 196 kts 73°
2026-05-07 14:29 43.88016 87.25113 5010 ft 194 kts 73°
2026-05-07 14:29 43.88394 87.26871 4752 ft 186 kts 73°
2026-05-07 14:30 43.88752 87.28537 4511 ft 175 kts 73°
2026-05-07 14:30 43.89089 87.30109 4288 ft 166 kts 73°
2026-05-07 14:30 43.89408 87.31598 4087 ft 156 kts 73°
2026-05-07 14:30 43.89708 87.33001 3906 ft 145 kts 73°
2026-05-07 14:31 43.89985 87.34295 3725 ft 136 kts 72°
2026-05-07 14:31 43.90250 87.35535 3550 ft 133 kts 72°
2026-05-07 14:31 43.90512 87.36760 3391 ft 132 kts 72°
2026-05-07 14:31 43.90769 87.37981 3215 ft 132 kts 73°
2026-05-07 14:32 43.91008 87.39209 3045 ft 133 kts 75°
2026-05-07 14:32 43.91240 87.40456 2856 ft 134 kts 73°
2026-05-07 14:32 43.91535 87.41686 2655 ft 135 kts 70°
2026-05-07 14:32 43.91803 87.42932 2494 ft 135 kts 74°
2026-05-07 14:33 43.92063 87.44188 2318 ft 136 kts 72°
2026-05-07 14:33 43.92345 87.45424 2151 ft 135 kts 71°
2026-05-07 14:33 43.92582 87.46489 2135 ft 92 kts 73°
2026-05-07 14:33 43.92729 87.47177 2137 ft 65 kts 74°
2026-05-07 14:34 43.92823 87.47672 2134 ft 51 kts 75°
2026-05-07 14:34 43.92850 87.48009 2132 ft 17 kts 99°
2026-05-07 14:34 43.92779 87.48109 2136 ft 17 kts 185°
2026-05-07 14:34 43.92713 87.48028 2136 ft 6 kts 195°
2026-05-07 14:35 43.92665 87.48038 2136 ft 7 kts 163°
2026-05-07 14:35 43.92615 87.48062 2137 ft 7 kts 160°
2026-05-07 14:35 43.92575 87.48082 2137 ft 6 kts 160°
2026-05-07 14:35 43.92538 87.48097 2137 ft 6 kts 165°
2026-05-07 14:36 43.92484 87.48118 2136 ft 9 kts 163°
2026-05-07 14:36 43.92422 87.48143 2136 ft 9 kts 162°
2026-05-07 14:36 43.92363 87.48172 2135 ft 9 kts 160°
2026-05-07 14:36 43.92302 87.48199 2136 ft 9 kts 161°
2026-05-07 14:37 43.92244 87.48197 2136 ft 8 kts 213°
2026-05-07 14:37 43.92205 87.48065 2136 ft 7 kts 253°
2026-05-07 14:37 43.92191 87.48000 2136 ft 7 kts 255°
2026-05-07 14:38 43.92179 87.47937 2136 ft 7 kts 254°
2026-05-07 14:38 43.92165 87.47875 2135 ft 7 kts 252°
2026-05-07 14:38 43.92152 87.47816 2136 ft 6 kts 252°
2026-05-07 14:38 43.92136 87.47760 2135 ft 6 kts 234°
2026-05-07 14:39 43.92098 87.47748 2136 ft 6 kts 173°
2026-05-07 14:39 43.92059 87.47762 2136 ft 6 kts 162°
2026-05-07 14:39 43.92040 87.47771 2136 ft 0 kts 161°